Time,TemperatureF,DewpointF,PressureIn,WindDirection,WindDirectionDegrees,WindSpeedMPH,WindSpeedGustMPH,Humidity,HourlyPrecipIn,Conditions,Clouds,dailyrainin,SoftwareType,DateUTC
2014-04-17 00:01:00,33.3,23.2,30.53,West,281,1.0,1.0,66,0.00,,,0.00,Wunderground v.1.15,2014-04-17 04:01:00,
2014-04-17 00:02:00,33.2,22.7,30.53,West,273,1.0,1.0,65,0.00,,,0.00,Wunderground v.1.15,2014-04-17 04:02:00,
2014-04-17 00:03:00,33.1,22.2,30.53,West,262,1.0,1.0,64,0.00,,,0.00,Wunderground v.1.15,2014-04-17 04:03:00,
2014-04-17 00:04:00,33.1,22.2,30.53,West,262,1.0,1.0,64,0.00,,,0.00,Wunderground v.1.15,2014-04-17 04:04:00,
2014-04-17 00:06:00,33.2,22.3,30.53,NW,304,1.0,1.0,64,0.00,,,0.00,Wunderground v.1.15,2014-04-17 04:06:00,
2014-04-17 00:07:00,33.3,22.1,30.53,NW,304,1.0,2.0,63,0.00,,,0.00,Wunderground v.1.15,2014-04-17 04:07:00,
2014-04-17 00:10:00,33.5,22.2,30.53,NW,310,1.0,1.0,63,0.00,,,0.00,Wunderground v.1.15,2014-04-17 04:10:00,
2014-04-17 00:13:00,33.5,22.6,30.53,NW,311,1.0,1.0,64,0.00,,,0.00,Wunderground v.1.15,2014-04-17 04:13:00,
2014-04-17 00:14:00,33.5,22.6,30.53,NW,310,1.0,1.0,64,0.00,,,0.00,Wunderground v.1.15,2014-04-17 04:14:00,
2014-04-17 00:15:00,33.4,22.9,30.53,NW,310,1.0,1.0,65,0.00,,,0.00,Wunderground v.1.15,2014-04-17 04:15:00,
2014-04-17 00:17:00,33.3,22.8,30.53,NW,310,0.0,1.0,65,0.00,,,0.00,Wunderground v.1.15,2014-04-17 04:17:00,
2014-04-17 00:19:00,33.1,23.0,30.53,West,274,0.0,1.0,66,0.00,,,0.00,Wunderground v.1.15,2014-04-17 04:19:00,
2014-04-17 00:20:00,33.0,22.9,30.53,West,259,0.0,1.0,66,0.00,,,0.00,Wunderground v.1.15,2014-04-17 04:20:00,
2014-04-17 00:22:00,32.9,23.1,30.53,West,259,0.0,1.0,67,0.00,,,0.00,Wunderground v.1.15,2014-04-17 04:22:00,
2014-04-17 00:23:00,32.8,23.0,30.53,West,260,0.0,1.0,67,0.00,,,0.00,Wunderground v.1.15,2014-04-17 04:23:00,
2014-04-17 00:24:00,32.7,22.9,30.53,West,259,0.0,1.0,67,0.00,,,0.00,Wunderground v.1.15,2014-04-17 04:24:00,
2014-04-17 00:25:00,32.6,22.8,30.53,West,262,0.0,1.0,67,0.00,,,0.00,Wunderground v.1.15,2014-04-17 04:25:00,
2014-04-17 00:27:00,32.5,22.8,30.53,West,262,1.0,1.0,67,0.00,,,0.00,Wunderground v.1.15,2014-04-17 04:27:00,
2014-04-17 00:30:00,32.6,22.1,30.53,NW,304,1.0,1.0,65,0.00,,,0.00,Wunderground v.1.15,2014-04-17 04:30:00,
2014-04-17 00:32:00,32.9,22.4,30.53,NW,305,1.0,1.0,65,0.00,,,0.00,Wunderground v.1.15,2014-04-17 04:32:00,
2014-04-17 00:33:00,32.9,22.4,30.53,NW,304,1.0,1.0,65,0.00,,,0.00,Wunderground v.1.15,2014-04-17 04:33:00,
2014-04-17 00:35:00,32.9,22.8,30.53,NW,304,1.0,1.0,66,0.00,,,0.00,Wunderground v.1.15,2014-04-17 04:35:00,
2014-04-17 00:36:00,32.9,22.8,30.53,NW,304,0.0,1.0,66,0.00,,,0.00,Wunderground v.1.15,2014-04-17 04:36:00,
2014-04-17 00:37:00,32.8,22.7,30.54,NW,304,0.0,1.0,66,0.00,,,0.00,Wunderground v.1.15,2014-04-17 04:37:00,
2014-04-17 00:39:00,32.6,22.8,30.53,NW,304,0.0,1.0,67,0.00,,,0.00,Wunderground v.1.15,2014-04-17 04:39:00,
2014-04-17 00:42:00,32.6,22.5,30.54,NW,315,0.0,2.0,66,0.00,,,0.00,Wunderground v.1.15,2014-04-17 04:42:00,
2014-04-17 00:43:00,32.7,22.6,30.53,NW,315,1.0,2.0,66,0.00,,,0.00,Wunderground v.1.15,2014-04-17 04:43:00,
2014-04-17 00:45:00,32.7,22.9,30.54,NW,315,1.0,2.0,67,0.00,,,0.00,Wunderground v.1.15,2014-04-17 04:45:00,
2014-04-17 00:46:00,32.7,22.9,30.53,NW,315,1.0,2.0,67,0.00,,,0.00,Wunderground v.1.15,2014-04-17 04:46:00,
2014-04-17 00:47:00,32.6,22.8,30.54,NW,315,1.0,2.0,67,0.00,,,0.00,Wunderground v.1.15,2014-04-17 04:47:00,
2014-04-17 00:50:00,32.4,23.0,30.54,NW,315,0.0,0.0,68,0.00,,,0.00,Wunderground v.1.15,2014-04-17 04:50:00,
2014-04-17 00:51:00,32.3,23.3,30.54,NW,315,0.0,0.0,69,0.00,,,0.00,Wunderground v.1.15,2014-04-17 04:51:00,
2014-04-17 00:52:00,32.3,23.3,30.54,NW,315,0.0,0.0,69,0.00,,,0.00,Wunderground v.1.15,2014-04-17 04:52:00,
2014-04-17 00:54:00,32.2,23.2,30.53,NW,315,0.0,0.0,69,0.00,,,0.00,Wunderground v.1.15,2014-04-17 04:54:00,
2014-04-17 00:57:00,32.0,23.0,30.54,NW,315,0.0,1.0,69,0.00,,,0.00,Wunderground v.1.15,2014-04-17 04:57:00,
2014-04-17 00:59:00,31.9,22.9,30.54,NW,315,0.0,1.0,69,0.00,,,0.00,Wunderground v.1.15,2014-04-17 04:59:00,
2014-04-17 01:01:00,31.8,23.1,30.54,NW,315,0.0,0.0,70,0.00,,,0.00,Wunderground v.1.15,2014-04-17 05:01:00,
2014-04-17 01:03:00,31.7,23.0,30.54,NW,315,0.0,0.0,70,0.00,,,0.00,Wunderground v.1.15,2014-04-17 05:03:00,
2014-04-17 01:04:00,31.6,22.9,30.54,NW,315,0.0,0.0,70,0.00,,,0.00,Wunderground v.1.15,2014-04-17 05:04:00,
2014-04-17 01:06:00,31.6,22.9,30.54,NW,315,0.0,0.0,70,0.00,,,0.00,Wunderground v.1.15,2014-04-17 05:06:00,
2014-04-17 01:07:00,31.6,22.9,30.54,NW,315,0.0,0.0,70,0.00,,,0.00,Wunderground v.1.15,2014-04-17 05:07:00,
2014-04-17 01:09:00,31.5,22.8,30.54,West,276,0.0,1.0,70,0.00,,,0.00,Wunderground v.1.15,2014-04-17 05:09:00,
2014-04-17 01:11:00,31.5,22.8,30.54,West,276,0.0,0.0,70,0.00,,,0.00,Wunderground v.1.15,2014-04-17 05:11:00,
2014-04-17 01:12:00,31.4,23.1,30.54,West,276,0.0,0.0,71,0.00,,,0.00,Wunderground v.1.15,2014-04-17 05:12:00,
2014-04-17 01:13:00,31.3,23.0,30.54,West,276,0.0,0.0,71,0.00,,,0.00,Wunderground v.1.15,2014-04-17 05:13:00,
2014-04-17 01:15:00,31.2,22.9,30.54,West,276,0.0,0.0,71,0.00,,,0.00,Wunderground v.1.15,2014-04-17 05:15:00,
2014-04-17 01:16:00,31.2,22.9,30.54,West,276,0.0,0.0,71,0.00,,,0.00,Wunderground v.1.15,2014-04-17 05:16:00,
2014-04-17 01:18:00,31.0,22.7,30.54,West,276,0.0,0.0,71,0.00,,,0.00,Wunderground v.1.15,2014-04-17 05:18:00,
2014-04-17 01:20:00,31.0,22.7,30.54,West,276,0.0,0.0,71,0.00,,,0.00,Wunderground v.1.15,2014-04-17 05:20:00,
2014-04-17 01:21:00,31.0,22.7,30.54,West,276,0.0,0.0,71,0.00,,,0.00,Wunderground v.1.15,2014-04-17 05:21:00,
2014-04-17 01:22:00,31.1,22.8,30.54,West,276,0.0,0.0,71,0.00,,,0.00,Wunderground v.1.15,2014-04-17 05:22:00,
2014-04-17 01:24:00,31.2,22.5,30.54,West,276,0.0,0.0,70,0.00,,,0.00,Wunderground v.1.15,2014-04-17 05:24:00,
2014-04-17 01:27:00,31.4,22.4,30.54,West,277,0.0,1.0,69,0.00,,,0.00,Wunderground v.1.15,2014-04-17 05:27:00,
2014-04-17 01:29:00,31.4,22.4,30.54,West,277,0.0,1.0,69,0.00,,,0.00,Wunderground v.1.15,2014-04-17 05:29:00,
2014-04-17 01:30:00,31.4,22.7,30.55,West,276,0.0,0.0,70,0.00,,,0.00,Wunderground v.1.15,2014-04-17 05:30:00,
2014-04-17 01:31:00,31.4,22.7,30.55,West,277,0.0,0.0,70,0.00,,,0.00,Wunderground v.1.15,2014-04-17 05:31:00,
2014-04-17 01:36:00,31.1,22.8,30.54,West,276,0.0,1.0,71,0.00,,,0.00,Wunderground v.1.15,2014-04-17 05:36:00,
2014-04-17 01:38:00,31.0,22.7,30.55,West,276,0.0,1.0,71,0.00,,,0.00,Wunderground v.1.15,2014-04-17 05:38:00,
2014-04-17 01:41:00,30.9,22.9,30.55,West,277,0.0,0.0,72,0.00,,,0.00,Wunderground v.1.15,2014-04-17 05:41:00,
2014-04-17 01:42:00,30.9,22.9,30.55,West,276,0.0,1.0,72,0.00,,,0.00,Wunderground v.1.15,2014-04-17 05:42:00,
2014-04-17 01:43:00,30.8,22.8,30.55,West,276,0.0,1.0,72,0.00,,,0.00,Wunderground v.1.15,2014-04-17 05:43:00,
2014-04-17 01:46:00,30.8,22.8,30.55,West,276,0.0,1.0,72,0.00,,,0.00,Wunderground v.1.15,2014-04-17 05:46:00,
2014-04-17 01:48:00,30.8,23.2,30.55,West,276,0.0,1.0,73,0.00,,,0.00,Wunderground v.1.15,2014-04-17 05:48:00,
2014-04-17 01:49:00,30.6,23.0,30.55,West,276,0.0,1.0,73,0.00,,,0.00,Wunderground v.1.15,2014-04-17 05:49:00,
2014-04-17 01:51:00,30.5,22.9,30.55,West,277,0.0,0.0,73,0.00,,,0.00,Wunderground v.1.15,2014-04-17 05:51:00,
2014-04-17 01:53:00,30.4,22.8,30.55,West,276,0.0,1.0,73,0.00,,,0.00,Wunderground v.1.15,2014-04-17 05:53:00,
2014-04-17 01:55:00,30.5,22.9,30.55,West,277,0.0,1.0,73,0.00,,,0.00,Wunderground v.1.15,2014-04-17 05:55:00,
2014-04-17 01:56:00,30.5,22.9,30.55,West,277,0.0,1.0,73,0.00,,,0.00,Wunderground v.1.15,2014-04-17 05:56:00,
2014-04-17 01:57:00,30.4,22.8,30.55,West,276,0.0,1.0,73,0.00,,,0.00,Wunderground v.1.15,2014-04-17 05:57:00,
2014-04-17 01:58:00,30.4,22.8,30.55,West,277,0.0,1.0,73,0.00,,,0.00,Wunderground v.1.15,2014-04-17 05:58:00,
2014-04-17 01:59:00,30.4,22.8,30.55,West,277,0.0,1.0,73,0.00,,,0.00,Wunderground v.1.15,2014-04-17 05:59:00,
2014-04-17 02:00:00,30.4,23.1,30.55,West,272,0.0,2.0,74,0.00,,,0.00,Wunderground v.1.15,2014-04-17 06:00:00,
2014-04-17 02:02:00,30.2,22.9,30.55,West,273,1.0,2.0,74,0.00,,,0.00,Wunderground v.1.15,2014-04-17 06:02:00,
2014-04-17 02:05:00,30.1,22.8,30.55,West,272,1.0,2.0,74,0.00,,,0.00,Wunderground v.1.15,2014-04-17 06:05:00,
2014-04-17 02:06:00,30.1,22.8,30.55,West,272,1.0,2.0,74,0.00,,,0.00,Wunderground v.1.15,2014-04-17 06:06:00,
2014-04-17 02:09:00,30.1,22.8,30.55,West,273,0.0,2.0,74,0.00,,,0.00,Wunderground v.1.15,2014-04-17 06:09:00,
2014-04-17 02:10:00,30.1,22.8,30.54,West,272,0.0,0.0,74,0.00,,,0.00,Wunderground v.1.15,2014-04-17 06:10:00,
2014-04-17 02:12:00,30.1,22.8,30.55,West,272,0.0,0.0,74,0.00,,,0.00,Wunderground v.1.15,2014-04-17 06:12:00,
2014-04-17 02:14:00,30.2,22.6,30.55,West,273,0.0,0.0,73,0.00,,,0.00,Wunderground v.1.15,2014-04-17 06:14:00,
2014-04-17 02:15:00,30.3,22.7,30.55,West,273,0.0,0.0,73,0.00,,,0.00,Wunderground v.1.15,2014-04-17 06:15:00,
2014-04-17 02:16:00,30.3,22.7,30.55,West,272,0.0,0.0,73,0.00,,,0.00,Wunderground v.1.15,2014-04-17 06:16:00,
2014-04-17 02:17:00,30.3,22.7,30.54,West,272,0.0,0.0,73,0.00,,,0.00,Wunderground v.1.15,2014-04-17 06:17:00,
2014-04-17 02:18:00,30.3,22.7,30.54,West,272,0.0,0.0,73,0.00,,,0.00,Wunderground v.1.15,2014-04-17 06:18:00,
2014-04-17 02:23:00,30.1,22.8,30.55,West,273,0.0,0.0,74,0.00,,,0.00,Wunderground v.1.15,2014-04-17 06:23:00,
2014-04-17 02:24:00,30.0,22.7,30.55,West,273,0.0,0.0,74,0.00,,,0.00,Wunderground v.1.15,2014-04-17 06:24:00,
2014-04-17 02:25:00,30.0,22.7,30.55,West,273,0.0,0.0,74,0.00,,,0.00,Wunderground v.1.15,2014-04-17 06:25:00,
2014-04-17 02:30:00,30.0,22.7,30.55,West,281,0.0,0.0,74,0.00,,,0.00,Wunderground v.1.15,2014-04-17 06:30:00,
2014-04-17 02:31:00,30.0,22.7,30.55,West,281,0.0,0.0,74,0.00,,,0.00,Wunderground v.1.15,2014-04-17 06:31:00,
2014-04-17 02:33:00,30.0,22.7,30.55,West,281,0.0,1.0,74,0.00,,,0.00,Wunderground v.1.15,2014-04-17 06:33:00,
2014-04-17 02:36:00,29.9,22.9,30.55,West,281,1.0,1.0,75,0.00,,,0.00,Wunderground v.1.15,2014-04-17 06:36:00,
2014-04-17 02:37:00,29.8,22.8,30.55,West,281,0.0,1.0,75,0.00,,,0.00,Wunderground v.1.15,2014-04-17 06:37:00,
2014-04-17 02:38:00,29.8,22.8,30.55,West,281,0.0,1.0,75,0.00,,,0.00,Wunderground v.1.15,2014-04-17 06:38:00,
2014-04-17 02:39:00,29.9,22.6,30.55,West,281,0.0,1.0,74,0.00,,,0.00,Wunderground v.1.15,2014-04-17 06:39:00,
2014-04-17 02:40:00,30.0,22.7,30.55,West,281,0.0,0.0,74,0.00,,,0.00,Wunderground v.1.15,2014-04-17 06:40:00,
2014-04-17 02:42:00,30.0,22.7,30.55,North,1,1.0,1.0,74,0.00,,,0.00,Wunderground v.1.15,2014-04-17 06:42:00,
2014-04-17 02:43:00,30.0,22.7,30.55,North,1,1.0,1.0,74,0.00,,,0.00,Wunderground v.1.15,2014-04-17 06:43:00,
2014-04-17 02:44:00,29.9,22.9,30.55,North,1,0.0,1.0,75,0.00,,,0.00,Wunderground v.1.15,2014-04-17 06:44:00,
2014-04-17 02:49:00,29.9,23.3,30.55,North,5,1.0,2.0,76,0.00,,,0.00,Wunderground v.1.15,2014-04-17 06:49:00,
2014-04-17 02:50:00,30.0,23.0,30.55,NNE,16,1.0,1.0,75,0.00,,,0.00,Wunderground v.1.15,2014-04-17 06:50:00,
2014-04-17 02:51:00,30.0,23.0,30.55,NNE,16,1.0,1.0,75,0.00,,,0.00,Wunderground v.1.15,2014-04-17 06:51:00,
2014-04-17 02:52:00,29.9,22.9,30.55,NNE,15,1.0,1.0,75,0.00,,,0.00,Wunderground v.1.15,2014-04-17 06:52:00,
2014-04-17 02:55:00,29.8,22.8,30.54,NNE,12,1.0,1.0,75,0.00,,,0.00,Wunderground v.1.15,2014-04-17 06:55:00,
2014-04-17 02:56:00,29.7,22.7,30.55,NNE,12,1.0,1.0,75,0.00,,,0.00,Wunderground v.1.15,2014-04-17 06:56:00,
2014-04-17 02:58:00,29.5,22.9,30.54,NNE,12,0.0,1.0,76,0.00,,,0.00,Wunderground v.1.15,2014-04-17 06:58:00,
2014-04-17 02:59:00,29.4,22.8,30.55,NNE,12,0.0,1.0,76,0.00,,,0.00,Wunderground v.1.15,2014-04-17 06:59:00,
2014-04-17 03:01:00,29.3,22.7,30.55,NNE,12,0.0,0.0,76,0.00,,,0.00,Wunderground v.1.15,2014-04-17 07:01:00,
2014-04-17 03:04:00,29.2,22.9,30.55,WNW,299,0.0,1.0,77,0.00,,,0.00,Wunderground v.1.15,2014-04-17 07:04:00,
2014-04-17 03:05:00,29.1,23.1,30.55,WNW,299,0.0,1.0,78,0.00,,,0.00,Wunderground v.1.15,2014-04-17 07:05:00,
2014-04-17 03:06:00,29.1,23.1,30.55,WNW,300,0.0,1.0,78,0.00,,,0.00,Wunderground v.1.15,2014-04-17 07:06:00,
2014-04-17 03:09:00,28.9,22.9,30.55,WNW,299,0.0,1.0,78,0.00,,,0.00,Wunderground v.1.15,2014-04-17 07:09:00,
2014-04-17 03:11:00,28.8,22.8,30.55,WNW,299,0.0,0.0,78,0.00,,,0.00,Wunderground v.1.15,2014-04-17 07:11:00,
2014-04-17 03:14:00,28.8,23.1,30.55,WNW,299,0.0,1.0,79,0.00,,,0.00,Wunderground v.1.15,2014-04-17 07:14:00,
2014-04-17 03:15:00,28.8,23.1,30.55,WNW,299,0.0,1.0,79,0.00,,,0.00,Wunderground v.1.15,2014-04-17 07:15:00,
2014-04-17 03:18:00,28.7,23.3,30.55,WNW,299,0.0,1.0,80,0.00,,,0.00,Wunderground v.1.15,2014-04-17 07:18:00,
2014-04-17 03:19:00,28.6,23.2,30.55,WNW,299,0.0,1.0,80,0.00,,,0.00,Wunderground v.1.15,2014-04-17 07:19:00,
2014-04-17 03:20:00,28.6,23.2,30.55,WNW,300,0.0,0.0,80,0.00,,,0.00,Wunderground v.1.15,2014-04-17 07:20:00,
2014-04-17 03:21:00,28.6,23.2,30.55,WNW,300,0.0,0.0,80,0.00,,,0.00,Wunderground v.1.15,2014-04-17 07:21:00,
2014-04-17 03:22:00,28.5,23.4,30.55,WNW,299,0.0,0.0,81,0.00,,,0.00,Wunderground v.1.15,2014-04-17 07:22:00,
2014-04-17 03:24:00,28.5,23.4,30.55,WNW,300,0.0,0.0,81,0.00,,,0.00,Wunderground v.1.15,2014-04-17 07:24:00,
2014-04-17 03:25:00,28.5,23.4,30.55,WNW,299,0.0,0.0,81,0.00,,,0.00,Wunderground v.1.15,2014-04-17 07:25:00,
2014-04-17 03:29:00,28.4,23.6,30.55,WNW,299,0.0,1.0,82,0.00,,,0.00,Wunderground v.1.15,2014-04-17 07:29:00,
2014-04-17 03:30:00,28.3,23.5,30.55,WNW,300,0.0,0.0,82,0.00,,,0.00,Wunderground v.1.15,2014-04-17 07:30:00,
2014-04-17 03:31:00,28.3,23.5,30.55,WNW,300,0.0,0.0,82,0.00,,,0.00,Wunderground v.1.15,2014-04-17 07:31:00,
2014-04-17 03:32:00,28.3,23.5,30.55,WNW,300,0.0,0.0,82,0.00,,,0.00,Wunderground v.1.15,2014-04-17 07:32:00,
2014-04-17 03:35:00,28.2,23.1,30.55,WNW,299,0.0,0.0,81,0.00,,,0.00,Wunderground v.1.15,2014-04-17 07:35:00,
2014-04-17 03:36:00,28.1,23.3,30.55,WNW,299,0.0,0.0,82,0.00,,,0.00,Wunderground v.1.15,2014-04-17 07:36:00,
2014-04-17 03:37:00,28.1,23.3,30.55,WNW,299,0.0,0.0,82,0.00,,,0.00,Wunderground v.1.15,2014-04-17 07:37:00,
2014-04-17 03:39:00,28.0,23.2,30.55,WNW,299,0.0,0.0,82,0.00,,,0.00,Wunderground v.1.15,2014-04-17 07:39:00,
2014-04-17 03:41:00,28.0,23.5,30.55,WNW,299,0.0,0.0,83,0.00,,,0.00,Wunderground v.1.15,2014-04-17 07:41:00,
2014-04-17 03:46:00,27.8,23.3,30.55,WNW,299,0.0,0.0,83,0.00,,,0.00,Wunderground v.1.15,2014-04-17 07:46:00,
2014-04-17 03:47:00,27.8,23.3,30.55,WNW,299,0.0,0.0,83,0.00,,,0.00,Wunderground v.1.15,2014-04-17 07:47:00,
2014-04-17 03:48:00,27.8,23.3,30.55,WNW,299,0.0,0.0,83,0.00,,,0.00,Wunderground v.1.15,2014-04-17 07:48:00,
2014-04-17 03:49:00,27.7,23.2,30.55,WNW,299,0.0,0.0,83,0.00,,,0.00,Wunderground v.1.15,2014-04-17 07:49:00,
2014-04-17 03:50:00,27.6,23.1,30.55,WNW,299,0.0,0.0,83,0.00,,,0.00,Wunderground v.1.15,2014-04-17 07:50:00,
2014-04-17 03:56:00,27.3,22.8,30.55,WNW,291,0.0,1.0,83,0.00,,,0.00,Wunderground v.1.15,2014-04-17 07:56:00,
2014-04-17 03:58:00,27.3,23.1,30.55,WSW,246,1.0,1.0,84,0.00,,,0.00,Wunderground v.1.15,2014-04-17 07:58:00,
2014-04-17 03:59:00,27.3,23.1,30.55,SSW,200,1.0,1.0,84,0.00,,,0.00,Wunderground v.1.15,2014-04-17 07:59:00,
2014-04-17 04:03:00,27.2,23.0,30.55,SSW,200,1.0,1.0,84,0.00,,,0.00,Wunderground v.1.15,2014-04-17 08:03:00,
2014-04-17 04:04:00,27.2,23.0,30.55,WSW,240,1.0,1.0,84,0.00,,,0.00,Wunderground v.1.15,2014-04-17 08:04:00,
2014-04-17 04:05:00,27.2,23.3,30.56,WSW,245,1.0,2.0,85,0.00,,,0.00,Wunderground v.1.15,2014-04-17 08:05:00,
2014-04-17 04:06:00,27.2,23.3,30.56,WSW,245,1.0,2.0,85,0.00,,,0.00,Wunderground v.1.15,2014-04-17 08:06:00,
2014-04-17 04:07:00,27.2,23.3,30.56,WSW,245,1.0,2.0,85,0.00,,,0.00,Wunderground v.1.15,2014-04-17 08:07:00,
2014-04-17 04:12:00,27.0,23.1,30.56,WSW,255,1.0,1.0,85,0.00,,,0.00,Wunderground v.1.15,2014-04-17 08:12:00,
2014-04-17 04:13:00,27.0,23.1,30.56,WSW,255,1.0,1.0,85,0.00,,,0.00,Wunderground v.1.15,2014-04-17 08:13:00,
2014-04-17 04:15:00,26.9,23.0,30.56,WSW,254,1.0,1.0,85,0.00,,,0.00,Wunderground v.1.15,2014-04-17 08:15:00,
2014-04-17 04:16:00,26.9,23.0,30.56,WSW,255,1.0,1.0,85,0.00,,,0.00,Wunderground v.1.15,2014-04-17 08:16:00,
2014-04-17 04:18:00,26.8,22.9,30.56,WSW,255,1.0,1.0,85,0.00,,,0.00,Wunderground v.1.15,2014-04-17 08:18:00,
2014-04-17 04:19:00,26.9,23.0,30.56,WSW,255,1.0,1.0,85,0.00,,,0.00,Wunderground v.1.15,2014-04-17 08:19:00,
2014-04-17 04:21:00,26.9,23.0,30.56,WSW,255,1.0,1.0,85,0.00,,,0.00,Wunderground v.1.15,2014-04-17 08:21:00,
2014-04-17 04:22:00,26.9,23.0,30.56,WSW,255,1.0,1.0,85,0.00,,,0.00,Wunderground v.1.15,2014-04-17 08:22:00,
2014-04-17 04:23:00,26.9,23.0,30.56,WSW,255,1.0,1.0,85,0.00,,,0.00,Wunderground v.1.15,2014-04-17 08:23:00,
2014-04-17 04:24:00,26.9,23.0,30.56,WSW,255,1.0,1.0,85,0.00,,,0.00,Wunderground v.1.15,2014-04-17 08:24:00,
2014-04-17 04:25:00,26.9,23.0,30.56,WSW,255,1.0,1.0,85,0.00,,,0.00,Wunderground v.1.15,2014-04-17 08:25:00,
2014-04-17 04:28:00,26.7,22.5,30.56,WSW,254,0.0,1.0,84,0.00,,,0.00,Wunderground v.1.15,2014-04-17 08:28:00,
2014-04-17 04:30:00,26.6,22.7,30.56,WSW,255,0.0,0.0,85,0.00,,,0.00,Wunderground v.1.15,2014-04-17 08:30:00,
2014-04-17 04:31:00,26.6,22.7,30.56,WSW,255,0.0,0.0,85,0.00,,,0.00,Wunderground v.1.15,2014-04-17 08:31:00,
2014-04-17 04:32:00,26.5,22.3,30.56,WSW,255,0.0,0.0,84,0.00,,,0.00,Wunderground v.1.15,2014-04-17 08:32:00,
2014-04-17 04:36:00,26.2,22.0,30.57,WSW,254,0.0,0.0,84,0.00,,,0.00,Wunderground v.1.15,2014-04-17 08:36:00,
2014-04-17 04:37:00,26.1,21.9,30.57,WSW,254,0.0,0.0,84,0.00,,,0.00,Wunderground v.1.15,2014-04-17 08:37:00,
2014-04-17 04:38:00,26.0,21.8,30.57,WSW,255,0.0,0.0,84,0.00,,,0.00,Wunderground v.1.15,2014-04-17 08:38:00,
2014-04-17 04:39:00,25.9,21.7,30.57,WSW,254,0.0,0.0,84,0.00,,,0.00,Wunderground v.1.15,2014-04-17 08:39:00,
2014-04-17 04:43:00,25.7,21.8,30.57,WSW,255,0.0,0.0,85,0.00,,,0.00,Wunderground v.1.15,2014-04-17 08:43:00,
2014-04-17 04:45:00,25.8,22.2,30.56,WSW,255,0.0,0.0,86,0.00,,,0.00,Wunderground v.1.15,2014-04-17 08:45:00,
2014-04-17 04:46:00,25.8,22.2,30.57,WSW,254,0.0,0.0,86,0.00,,,0.00,Wunderground v.1.15,2014-04-17 08:46:00,
2014-04-17 04:48:00,25.8,22.2,30.57,WSW,254,0.0,0.0,86,0.00,,,0.00,Wunderground v.1.15,2014-04-17 08:48:00,
2014-04-17 04:50:00,25.9,22.3,30.57,WSW,255,0.0,0.0,86,0.00,,,0.00,Wunderground v.1.15,2014-04-17 08:50:00,
2014-04-17 04:51:00,25.8,22.2,30.57,WSW,254,0.0,0.0,86,0.00,,,0.00,Wunderground v.1.15,2014-04-17 08:51:00,
2014-04-17 04:53:00,25.8,22.2,30.57,WSW,255,0.0,0.0,86,0.00,,,0.00,Wunderground v.1.15,2014-04-17 08:53:00,
2014-04-17 04:56:00,25.9,22.3,30.57,WSW,255,0.0,0.0,86,0.00,,,0.00,Wunderground v.1.15,2014-04-17 08:56:00,
2014-04-17 04:57:00,25.9,22.6,30.57,WSW,254,0.0,0.0,87,0.00,,,0.00,Wunderground v.1.15,2014-04-17 08:57:00,
2014-04-17 04:58:00,25.9,22.6,30.57,WSW,255,0.0,0.0,87,0.00,,,0.00,Wunderground v.1.15,2014-04-17 08:58:00,
2014-04-17 05:00:00,26.0,22.7,30.57,WSW,255,0.0,0.0,87,0.00,,,0.00,Wunderground v.1.15,2014-04-17 09:00:00,
2014-04-17 05:01:00,26.0,22.7,30.57,WSW,255,0.0,0.0,87,0.00,,,0.00,Wunderground v.1.15,2014-04-17 09:01:00,
2014-04-17 05:03:00,25.9,22.6,30.57,WSW,254,0.0,0.0,87,0.00,,,0.00,Wunderground v.1.15,2014-04-17 09:03:00,
2014-04-17 05:05:00,25.8,22.5,30.57,WSW,255,0.0,0.0,87,0.00,,,0.00,Wunderground v.1.15,2014-04-17 09:05:00,
2014-04-17 05:06:00,25.8,22.5,30.57,WSW,255,0.0,0.0,87,0.00,,,0.00,Wunderground v.1.15,2014-04-17 09:06:00,
2014-04-17 05:07:00,25.8,22.2,30.57,WSW,255,0.0,0.0,86,0.00,,,0.00,Wunderground v.1.15,2014-04-17 09:07:00,
2014-04-17 05:10:00,25.6,22.3,30.58,WSW,254,0.0,0.0,87,0.00,,,0.00,Wunderground v.1.15,2014-04-17 09:10:00,
2014-04-17 05:11:00,25.5,22.2,30.58,WSW,254,0.0,0.0,87,0.00,,,0.00,Wunderground v.1.15,2014-04-17 09:11:00,
2014-04-17 05:16:00,25.5,22.2,30.58,WSW,255,0.0,0.0,87,0.00,,,0.00,Wunderground v.1.15,2014-04-17 09:16:00,
2014-04-17 05:17:00,25.4,22.1,30.58,WSW,255,0.0,0.0,87,0.00,,,0.00,Wunderground v.1.15,2014-04-17 09:17:00,
2014-04-17 05:18:00,25.4,22.1,30.58,WSW,254,0.0,0.0,87,0.00,,,0.00,Wunderground v.1.15,2014-04-17 09:18:00,
2014-04-17 05:19:00,25.4,22.1,30.58,WSW,254,0.0,0.0,87,0.00,,,0.00,Wunderground v.1.15,2014-04-17 09:19:00,
2014-04-17 05:20:00,25.3,22.0,30.58,WSW,254,0.0,0.0,87,0.00,,,0.00,Wunderground v.1.15,2014-04-17 09:20:00,
2014-04-17 05:21:00,25.3,22.0,30.58,WSW,255,0.0,0.0,87,0.00,,,0.00,Wunderground v.1.15,2014-04-17 09:21:00,
2014-04-17 05:26:00,25.3,22.2,30.58,WSW,254,0.0,0.0,88,0.00,,,0.00,Wunderground v.1.15,2014-04-17 09:26:00,
2014-04-17 05:27:00,25.3,22.2,30.58,WSW,255,0.0,0.0,88,0.00,,,0.00,Wunderground v.1.15,2014-04-17 09:27:00,
2014-04-17 05:28:00,25.2,22.1,30.58,WSW,254,0.0,0.0,88,0.00,,,0.00,Wunderground v.1.15,2014-04-17 09:28:00,
2014-04-17 05:31:00,25.1,22.0,30.58,WSW,255,0.0,0.0,88,0.00,,,0.00,Wunderground v.1.15,2014-04-17 09:31:00,
2014-04-17 05:33:00,25.1,22.3,30.58,WSW,255,0.0,0.0,89,0.00,,,0.00,Wunderground v.1.15,2014-04-17 09:33:00,
2014-04-17 05:35:00,25.3,22.5,30.58,WSW,254,0.0,1.0,89,0.00,,,0.00,Wunderground v.1.15,2014-04-17 09:35:00,
2014-04-17 05:36:00,25.3,22.5,30.58,WSW,254,0.0,1.0,89,0.00,,,0.00,Wunderground v.1.15,2014-04-17 09:36:00,
2014-04-17 05:37:00,25.3,22.5,30.58,WSW,255,0.0,1.0,89,0.00,,,0.00,Wunderground v.1.15,2014-04-17 09:37:00,
2014-04-17 05:41:00,25.3,22.5,30.58,WSW,255,0.0,0.0,89,0.00,,,0.00,Wunderground v.1.15,2014-04-17 09:41:00,
2014-04-17 05:43:00,25.3,22.5,30.58,WSW,255,0.0,0.0,89,0.00,,,0.00,Wunderground v.1.15,2014-04-17 09:43:00,
2014-04-17 05:44:00,25.3,22.5,30.58,WSW,255,0.0,1.0,89,0.00,,,0.00,Wunderground v.1.15,2014-04-17 09:44:00,
2014-04-17 05:47:00,25.3,22.5,30.59,WSW,254,0.0,1.0,89,0.00,,,0.00,Wunderground v.1.15,2014-04-17 09:47:00,
2014-04-17 05:50:00,25.3,22.5,30.59,WSW,254,1.0,1.0,89,0.00,,,0.00,Wunderground v.1.15,2014-04-17 09:50:00,
2014-04-17 05:51:00,25.3,22.5,30.59,WSW,255,1.0,1.0,89,0.00,,,0.00,Wunderground v.1.15,2014-04-17 09:51:00,
2014-04-17 05:53:00,25.4,22.6,30.59,WSW,254,1.0,1.0,89,0.00,,,0.00,Wunderground v.1.15,2014-04-17 09:53:00,
2014-04-17 05:54:00,25.4,22.6,30.59,West,266,1.0,1.0,89,0.00,,,0.00,Wunderground v.1.15,2014-04-17 09:54:00,
2014-04-17 05:57:00,25.5,22.7,30.59,West,267,1.0,1.0,89,0.00,,,0.00,Wunderground v.1.15,2014-04-17 09:57:00,
2014-04-17 05:58:00,25.4,22.6,30.59,West,267,1.0,1.0,89,0.00,,,0.00,Wunderground v.1.15,2014-04-17 09:58:00,
2014-04-17 05:59:00,25.5,22.7,30.59,West,267,1.0,1.0,89,0.00,,,0.00,Wunderground v.1.15,2014-04-17 09:59:00,
2014-04-17 06:00:00,25.5,22.7,30.59,West,267,1.0,1.0,89,0.00,,,0.00,Wunderground v.1.15,2014-04-17 10:00:00,
2014-04-17 06:01:00,25.5,22.7,30.59,West,266,1.0,1.0,89,0.00,,,0.00,Wunderground v.1.15,2014-04-17 10:01:00,
2014-04-17 06:04:00,25.6,23.1,30.59,West,267,0.0,1.0,90,0.00,,,0.00,Wunderground v.1.15,2014-04-17 10:04:00,
2014-04-17 06:05:00,25.6,23.1,30.59,West,267,0.0,1.0,90,0.00,,,0.00,Wunderground v.1.15,2014-04-17 10:05:00,
2014-04-17 06:08:00,25.5,22.7,30.59,West,266,0.0,1.0,89,0.00,,,0.00,Wunderground v.1.15,2014-04-17 10:08:00,
2014-04-17 06:09:00,25.5,22.7,30.59,West,266,1.0,1.0,89,0.00,,,0.00,Wunderground v.1.15,2014-04-17 10:09:00,
2014-04-17 06:11:00,25.4,22.6,30.59,West,267,1.0,1.0,89,0.00,,,0.00,Wunderground v.1.15,2014-04-17 10:11:00,
2014-04-17 06:12:00,25.4,22.6,30.59,West,267,1.0,1.0,89,0.00,,,0.00,Wunderground v.1.15,2014-04-17 10:12:00,
2014-04-17 06:13:00,25.4,22.9,30.59,West,267,1.0,1.0,90,0.00,,,0.00,Wunderground v.1.15,2014-04-17 10:13:00,
2014-04-17 06:16:00,25.4,22.6,30.59,West,267,1.0,1.0,89,0.00,,,0.00,Wunderground v.1.15,2014-04-17 10:16:00,
2014-04-17 06:17:00,25.4,22.9,30.59,West,267,0.0,1.0,90,0.00,,,0.00,Wunderground v.1.15,2014-04-17 10:17:00,
2014-04-17 06:18:00,25.4,22.9,30.59,West,267,0.0,1.0,90,0.00,,,0.00,Wunderground v.1.15,2014-04-17 10:18:00,
2014-04-17 06:20:00,25.3,22.8,30.59,West,267,0.0,0.0,90,0.00,,,0.00,Wunderground v.1.15,2014-04-17 10:20:00,
2014-04-17 06:23:00,25.2,22.4,30.59,West,267,0.0,0.0,89,0.00,,,0.00,Wunderground v.1.15,2014-04-17 10:23:00,
2014-04-17 06:24:00,25.2,22.4,30.60,West,266,0.0,0.0,89,0.00,,,0.00,Wunderground v.1.15,2014-04-17 10:24:00,
2014-04-17 06:25:00,25.2,22.4,30.60,West,267,0.0,0.0,89,0.00,,,0.00,Wunderground v.1.15,2014-04-17 10:25:00,
2014-04-17 06:28:00,25.2,22.7,30.60,West,267,0.0,0.0,90,0.00,,,0.00,Wunderground v.1.15,2014-04-17 10:28:00,
2014-04-17 06:29:00,25.2,22.7,30.60,South,188,0.0,1.0,90,0.00,,,0.00,Wunderground v.1.15,2014-04-17 10:29:00,
2014-04-17 06:32:00,25.1,22.6,30.60,South,188,0.0,0.0,90,0.00,,,0.00,Wunderground v.1.15,2014-04-17 10:32:00,
2014-04-17 06:33:00,25.1,22.6,30.60,South,189,0.0,1.0,90,0.00,,,0.00,Wunderground v.1.15,2014-04-17 10:33:00,
2014-04-17 06:34:00,25.1,22.6,30.60,South,188,0.0,1.0,90,0.00,,,0.00,Wunderground v.1.15,2014-04-17 10:34:00,
2014-04-17 06:38:00,25.1,22.6,30.60,South,188,0.0,1.0,90,0.00,,,0.00,Wunderground v.1.15,2014-04-17 10:38:00,
2014-04-17 06:39:00,25.1,22.8,30.60,South,188,0.0,1.0,91,0.00,,,0.00,Wunderground v.1.15,2014-04-17 10:39:00,
2014-04-17 06:42:00,25.3,23.0,30.60,South,189,0.0,1.0,91,0.00,,,0.00,Wunderground v.1.15,2014-04-17 10:42:00,
2014-04-17 06:43:00,25.3,23.0,30.60,South,188,0.0,1.0,91,0.00,,,0.00,Wunderground v.1.15,2014-04-17 10:43:00,
2014-04-17 06:45:00,25.2,22.9,30.60,SSW,212,0.0,1.0,91,0.00,,,0.00,Wunderground v.1.15,2014-04-17 10:45:00,
2014-04-17 06:47:00,25.3,23.0,30.60,SW,222,1.0,1.0,91,0.00,,,0.00,Wunderground v.1.15,2014-04-17 10:47:00,
2014-04-17 06:49:00,25.3,23.0,30.60,SW,222,1.0,1.0,91,0.00,,,0.00,Wunderground v.1.15,2014-04-17 10:49:00,
2014-04-17 06:50:00,25.3,23.0,30.60,SW,222,1.0,1.0,91,0.00,,,0.00,Wunderground v.1.15,2014-04-17 10:50:00,
2014-04-17 06:51:00,25.3,23.0,30.60,SW,222,1.0,1.0,91,0.00,,,0.00,Wunderground v.1.15,2014-04-17 10:51:00,
2014-04-17 06:55:00,25.3,22.8,30.60,SW,222,1.0,1.0,90,0.00,,,0.00,Wunderground v.1.15,2014-04-17 10:55:00,
2014-04-17 06:57:00,25.4,22.9,30.60,West,276,1.0,1.0,90,0.00,,,0.00,Wunderground v.1.15,2014-04-17 10:57:00,
2014-04-17 07:01:00,25.5,23.2,30.61,West,276,1.0,1.0,91,0.00,,,0.00,Wunderground v.1.15,2014-04-17 11:01:00,
2014-04-17 07:03:00,25.5,23.0,30.61,West,276,1.0,1.0,90,0.00,,,0.00,Wunderground v.1.15,2014-04-17 11:03:00,
2014-04-17 07:05:00,25.6,23.1,30.61,West,276,1.0,1.0,90,0.00,,,0.00,Wunderground v.1.15,2014-04-17 11:05:00,
2014-04-17 07:06:00,25.6,23.1,30.61,West,276,1.0,1.0,90,0.00,,,0.00,Wunderground v.1.15,2014-04-17 11:06:00,
2014-04-17 07:09:00,25.7,23.2,30.61,West,276,1.0,1.0,90,0.00,,,0.00,Wunderground v.1.15,2014-04-17 11:09:00,
2014-04-17 07:11:00,25.8,23.3,30.62,West,276,1.0,1.0,90,0.00,,,0.00,Wunderground v.1.15,2014-04-17 11:11:00,
2014-04-17 07:13:00,25.9,23.4,30.62,West,276,0.0,1.0,90,0.00,,,0.00,Wunderground v.1.15,2014-04-17 11:13:00,
2014-04-17 07:14:00,26.0,23.5,30.62,West,276,0.0,1.0,90,0.00,,,0.00,Wunderground v.1.15,2014-04-17 11:14:00,
2014-04-17 07:16:00,26.2,23.7,30.62,West,276,0.0,1.0,90,0.00,,,0.00,Wunderground v.1.15,2014-04-17 11:16:00,
2014-04-17 07:17:00,26.2,23.7,30.62,West,276,0.0,1.0,90,0.00,,,0.00,Wunderground v.1.15,2014-04-17 11:17:00,
2014-04-17 07:22:00,26.9,24.6,30.62,West,276,0.0,0.0,91,0.00,,,0.00,Wunderground v.1.15,2014-04-17 11:22:00,
2014-04-17 07:23:00,27.0,24.5,30.62,West,276,0.0,0.0,90,0.00,,,0.00,Wunderground v.1.15,2014-04-17 11:23:00,
2014-04-17 07:24:00,27.1,24.6,30.62,West,276,0.0,0.0,90,0.00,,,0.00,Wunderground v.1.15,2014-04-17 11:24:00,
2014-04-17 07:25:00,27.2,24.7,30.62,West,276,0.0,1.0,90,0.00,,,0.00,Wunderground v.1.15,2014-04-17 11:25:00,
2014-04-17 07:27:00,27.4,24.9,30.62,West,276,0.0,1.0,90,0.00,,,0.00,Wunderground v.1.15,2014-04-17 11:27:00,
2014-04-17 07:30:00,27.9,25.3,30.62,West,276,0.0,1.0,90,0.00,,,0.00,Wunderground v.1.15,2014-04-17 11:30:00,
2014-04-17 07:33:00,28.3,25.5,30.62,West,276,0.0,0.0,89,0.00,,,0.00,Wunderground v.1.15,2014-04-17 11:33:00,
2014-04-17 07:34:00,28.5,25.7,30.62,West,276,0.0,0.0,89,0.00,,,0.00,Wunderground v.1.15,2014-04-17 11:34:00,
2014-04-17 07:36:00,28.9,26.1,30.63,West,276,0.0,1.0,89,0.00,,,0.00,Wunderground v.1.15,2014-04-17 11:36:00,
2014-04-17 07:38:00,29.1,26.0,30.63,ESE,112,0.0,1.0,88,0.00,,,0.00,Wunderground v.1.15,2014-04-17 11:38:00,
2014-04-17 07:39:00,29.2,26.1,30.63,ESE,110,0.0,1.0,88,0.00,,,0.00,Wunderground v.1.15,2014-04-17 11:39:00,
2014-04-17 07:40:00,29.3,26.2,30.63,ESE,110,0.0,1.0,88,0.00,,,0.00,Wunderground v.1.15,2014-04-17 11:40:00,
2014-04-17 07:44:00,30.0,26.9,30.63,ESE,110,0.0,0.0,88,0.00,,,0.00,Wunderground v.1.15,2014-04-17 11:44:00,
2014-04-17 07:45:00,30.1,26.7,30.63,ESE,111,0.0,0.0,87,0.00,,,0.00,Wunderground v.1.15,2014-04-17 11:45:00,
2014-04-17 07:47:00,30.5,27.1,30.63,ESE,111,0.0,0.0,87,0.00,,,0.00,Wunderground v.1.15,2014-04-17 11:47:00,
2014-04-17 07:48:00,30.8,27.4,30.63,ESE,110,0.0,0.0,87,0.00,,,0.00,Wunderground v.1.15,2014-04-17 11:48:00,
2014-04-17 07:49:00,31.0,27.6,30.63,ESE,111,0.0,0.0,87,0.00,,,0.00,Wunderground v.1.15,2014-04-17 11:49:00,
2014-04-17 07:50:00,31.3,27.9,30.63,ESE,110,0.0,0.0,87,0.00,,,0.00,Wunderground v.1.15,2014-04-17 11:50:00,
2014-04-17 07:52:00,31.9,28.5,30.63,ESE,110,0.0,0.0,87,0.00,,,0.00,Wunderground v.1.15,2014-04-17 11:52:00,
2014-04-17 07:57:00,33.1,28.8,30.63,ESE,111,0.0,0.0,84,0.00,,,0.00,Wunderground v.1.15,2014-04-17 11:57:00,
2014-04-17 07:58:00,33.3,28.7,30.63,ESE,110,0.0,1.0,83,0.00,,,0.00,Wunderground v.1.15,2014-04-17 11:58:00,
2014-04-17 07:59:00,33.4,28.5,30.63,SE,127,0.0,1.0,82,0.00,,,0.00,Wunderground v.1.15,2014-04-17 11:59:00,
2014-04-17 08:01:00,33.5,28.3,30.64,SE,127,0.0,0.0,81,0.00,,,0.00,Wunderground v.1.15,2014-04-17 12:01:00,
2014-04-17 08:02:00,33.7,28.5,30.64,SE,127,0.0,0.0,81,0.00,,,0.00,Wunderground v.1.15,2014-04-17 12:02:00,
2014-04-17 08:03:00,33.8,28.6,30.64,SE,127,0.0,0.0,81,0.00,,,0.00,Wunderground v.1.15,2014-04-17 12:03:00,
2014-04-17 08:05:00,34.1,28.9,30.63,SE,127,0.0,0.0,81,0.00,,,0.00,Wunderground v.1.15,2014-04-17 12:05:00,
2014-04-17 08:09:00,34.6,28.4,30.63,SE,127,0.0,1.0,78,0.00,,,0.00,Wunderground v.1.15,2014-04-17 12:09:00,
2014-04-17 08:10:00,34.6,28.1,30.64,SE,127,0.0,1.0,77,0.00,,,0.00,Wunderground v.1.15,2014-04-17 12:10:00,
2014-04-17 08:12:00,34.6,28.1,30.64,SE,127,0.0,1.0,77,0.00,,,0.00,Wunderground v.1.15,2014-04-17 12:12:00,
2014-04-17 08:14:00,34.6,27.8,30.63,East,93,0.0,1.0,76,0.00,,,0.00,Wunderground v.1.15,2014-04-17 12:14:00,
2014-04-17 08:15:00,34.5,27.7,30.64,East,94,0.0,1.0,76,0.00,,,0.00,Wunderground v.1.15,2014-04-17 12:15:00,
2014-04-17 08:17:00,34.4,27.6,30.64,East,101,1.0,2.0,76,0.00,,,0.00,Wunderground v.1.15,2014-04-17 12:17:00,
2014-04-17 08:20:00,34.3,27.5,30.64,East,101,1.0,1.0,76,0.00,,,0.00,Wunderground v.1.15,2014-04-17 12:20:00,
2014-04-17 08:21:00,34.5,28.0,30.64,ESE,110,1.0,1.0,77,0.00,,,0.00,Wunderground v.1.15,2014-04-17 12:21:00,
2014-04-17 08:26:00,34.5,26.7,30.64,SE,127,1.0,2.0,73,0.00,,,0.00,Wunderground v.1.15,2014-04-17 12:26:00,
2014-04-17 08:27:00,34.7,27.3,30.64,SSE,148,1.0,2.0,74,0.00,,,0.00,Wunderground v.1.15,2014-04-17 12:27:00,
2014-04-17 08:28:00,34.8,27.4,30.64,SSE,148,1.0,2.0,74,0.00,,,0.00,Wunderground v.1.15,2014-04-17 12:28:00,
2014-04-17 08:31:00,35.1,27.3,30.64,ESE,122,1.0,2.0,73,0.00,,,0.00,Wunderground v.1.15,2014-04-17 12:31:00,
2014-04-17 08:32:00,35.1,27.3,30.64,SE,125,1.0,2.0,73,0.00,,,0.00,Wunderground v.1.15,2014-04-17 12:32:00,
2014-04-17 08:33:00,35.2,27.4,30.64,East,96,1.0,2.0,73,0.00,,,0.00,Wunderground v.1.15,2014-04-17 12:33:00,
2014-04-17 08:34:00,35.2,27.1,30.64,East,96,1.0,2.0,72,0.00,,,0.00,Wunderground v.1.15,2014-04-17 12:34:00,
2014-04-17 08:36:00,35.3,27.5,30.64,ESE,105,1.0,2.0,73,0.00,,,0.00,Wunderground v.1.15,2014-04-17 12:36:00,
2014-04-17 08:39:00,35.8,27.7,30.64,East,93,1.0,2.0,72,0.00,,,0.00,Wunderground v.1.15,2014-04-17 12:39:00,
2014-04-17 08:40:00,35.9,27.4,30.64,East,91,1.0,1.0,71,0.00,,,0.00,Wunderground v.1.15,2014-04-17 12:40:00,
2014-04-17 08:42:00,36.2,28.0,30.64,East,91,0.0,1.0,72,0.00,,,0.00,Wunderground v.1.15,2014-04-17 12:42:00,
2014-04-17 08:44:00,36.6,28.8,30.64,East,91,0.0,2.0,73,0.00,,,0.00,Wunderground v.1.15,2014-04-17 12:44:00,
2014-04-17 08:46:00,36.7,28.5,30.64,ESE,115,1.0,2.0,72,0.00,,,0.00,Wunderground v.1.15,2014-04-17 12:46:00,
2014-04-17 08:47:00,36.7,28.9,30.64,ESE,115,1.0,2.0,73,0.00,,,0.00,Wunderground v.1.15,2014-04-17 12:47:00,
2014-04-17 08:48:00,36.8,29.0,30.64,East,94,1.0,2.0,73,0.00,,,0.00,Wunderground v.1.15,2014-04-17 12:48:00,
2014-04-17 08:49:00,36.9,29.1,30.64,ESE,116,1.0,2.0,73,0.00,,,0.00,Wunderground v.1.15,2014-04-17 12:49:00,
2014-04-17 08:54:00,37.4,29.5,30.64,ENE,69,1.0,1.0,73,0.00,,,0.00,Wunderground v.1.15,2014-04-17 12:54:00,
2014-04-17 08:55:00,37.5,29.3,30.64,ESE,110,1.0,2.0,72,0.00,,,0.00,Wunderground v.1.15,2014-04-17 12:55:00,
2014-04-17 08:57:00,37.5,29.3,30.64,East,84,1.0,2.0,72,0.00,,,0.00,Wunderground v.1.15,2014-04-17 12:57:00,
2014-04-17 08:58:00,37.5,28.6,30.64,East,84,1.0,2.0,70,0.00,,,0.00,Wunderground v.1.15,2014-04-17 12:58:00,
2014-04-17 09:03:00,37.7,28.8,30.64,ENE,70,1.0,2.0,70,0.00,,,0.00,Wunderground v.1.15,2014-04-17 13:03:00,
2014-04-17 09:05:00,38.0,29.1,30.64,NE,56,1.0,2.0,70,0.00,,,0.00,Wunderground v.1.15,2014-04-17 13:05:00,
2014-04-17 09:06:00,38.0,29.1,30.64,NE,56,1.0,2.0,70,0.00,,,0.00,Wunderground v.1.15,2014-04-17 13:06:00,
2014-04-17 09:08:00,38.3,29.0,30.64,ENE,70,1.0,2.0,69,0.00,,,0.00,Wunderground v.1.15,2014-04-17 13:08:00,
2014-04-17 09:09:00,38.3,29.0,30.64,ENE,77,1.0,2.0,69,0.00,,,0.00,Wunderground v.1.15,2014-04-17 13:09:00,
2014-04-17 09:14:00,38.8,28.8,30.64,ENE,75,1.0,1.0,67,0.00,,,0.00,Wunderground v.1.15,2014-04-17 13:14:00,
2014-04-17 09:15:00,39.0,29.0,30.64,ENE,70,1.0,1.0,67,0.00,,,0.00,Wunderground v.1.15,2014-04-17 13:15:00,
2014-04-17 09:19:00,39.2,26.5,30.64,WSW,257,0.0,2.0,60,0.00,,,0.00,Wunderground v.1.15,2014-04-17 13:19:00,
2014-04-17 09:20:00,39.2,26.5,30.64,West,262,1.0,2.0,60,0.00,,,0.00,Wunderground v.1.15,2014-04-17 13:20:00,
2014-04-17 09:21:00,39.2,26.5,30.64,WSW,257,1.0,2.0,60,0.00,,,0.00,Wunderground v.1.15,2014-04-17 13:21:00,
2014-04-17 09:22:00,39.1,26.4,30.64,WSW,256,1.0,2.0,60,0.00,,,0.00,Wunderground v.1.15,2014-04-17 13:22:00,
2014-04-17 09:25:00,39.1,26.0,30.64,WSW,256,1.0,2.0,59,0.00,,,0.00,Wunderground v.1.15,2014-04-17 13:25:00,
2014-04-17 09:27:00,39.3,27.4,30.64,SW,218,1.0,2.0,62,0.00,,,0.00,Wunderground v.1.15,2014-04-17 13:27:00,
2014-04-17 09:28:00,39.4,27.5,30.64,WSW,240,1.0,2.0,62,0.00,,,0.00,Wunderground v.1.15,2014-04-17 13:28:00,
2014-04-17 09:31:00,39.6,27.2,30.64,WSW,251,1.0,1.0,61,0.00,,,0.00,Wunderground v.1.15,2014-04-17 13:31:00,
2014-04-17 09:32:00,39.7,26.9,30.64,WSW,252,1.0,1.0,60,0.00,,,0.00,Wunderground v.1.15,2014-04-17 13:32:00,
2014-04-17 09:33:00,39.9,27.5,30.64,West,263,1.0,1.0,61,0.00,,,0.00,Wunderground v.1.15,2014-04-17 13:33:00,
2014-04-17 09:34:00,40.1,27.3,30.64,WSW,245,1.0,1.0,60,0.00,,,0.00,Wunderground v.1.15,2014-04-17 13:34:00,
2014-04-17 09:36:00,40.2,26.6,30.64,WSW,245,1.0,1.0,58,0.00,,,0.00,Wunderground v.1.15,2014-04-17 13:36:00,
2014-04-17 09:38:00,40.6,28.2,30.64,SE,124,1.0,1.0,61,0.00,,,0.00,Wunderground v.1.15,2014-04-17 13:38:00,
2014-04-17 09:40:00,41.1,28.3,30.64,SE,134,1.0,1.0,60,0.00,,,0.00,Wunderground v.1.15,2014-04-17 13:40:00,
2014-04-17 09:41:00,41.5,28.6,30.64,SE,134,1.0,1.0,60,0.00,,,0.00,Wunderground v.1.15,2014-04-17 13:41:00,
2014-04-17 09:42:00,41.6,28.7,30.64,NNE,20,1.0,1.0,60,0.00,,,0.00,Wunderground v.1.15,2014-04-17 13:42:00,
2014-04-17 09:46:00,42.7,29.4,30.64,East,94,0.0,1.0,59,0.00,,,0.00,Wunderground v.1.15,2014-04-17 13:46:00,
2014-04-17 09:47:00,42.9,29.5,30.64,WNW,294,0.0,1.0,59,0.00,,,0.00,Wunderground v.1.15,2014-04-17 13:47:00,
2014-04-17 09:48:00,43.1,29.7,30.64,WNW,294,0.0,1.0,59,0.00,,,0.00,Wunderground v.1.15,2014-04-17 13:48:00,
2014-04-17 09:49:00,43.2,29.8,30.64,NNW,334,0.0,3.0,59,0.00,,,0.00,Wunderground v.1.15,2014-04-17 13:49:00,
2014-04-17 09:50:00,43.1,29.3,30.64,NW,326,1.0,1.0,58,0.00,,,0.00,Wunderground v.1.15,2014-04-17 13:50:00,
2014-04-17 09:54:00,42.8,28.6,30.64,NW,312,1.0,3.0,57,0.00,,,0.00,Wunderground v.1.15,2014-04-17 13:54:00,
2014-04-17 09:55:00,42.7,28.5,30.64,WNW,302,1.0,3.0,57,0.00,,,0.00,Wunderground v.1.15,2014-04-17 13:55:00,
2014-04-17 09:56:00,42.6,28.4,30.64,WNW,302,1.0,3.0,57,0.00,,,0.00,Wunderground v.1.15,2014-04-17 13:56:00,
2014-04-17 09:59:00,42.7,28.5,30.64,NW,319,1.0,3.0,57,0.00,,,0.00,Wunderground v.1.15,2014-04-17 13:59:00,
2014-04-17 10:01:00,42.8,28.2,30.64,NE,35,1.0,2.0,56,0.00,,,0.00,Wunderground v.1.15,2014-04-17 14:01:00,
2014-04-17 10:02:00,42.9,28.3,30.64,NE,36,1.0,2.0,56,0.00,,,0.00,Wunderground v.1.15,2014-04-17 14:02:00,
2014-04-17 10:04:00,43.1,28.5,30.64,WNW,290,1.0,4.0,56,0.00,,,0.00,Wunderground v.1.15,2014-04-17 14:04:00,
2014-04-17 10:05:00,43.1,28.5,30.64,NW,319,1.0,4.0,56,0.00,,,0.00,Wunderground v.1.15,2014-04-17 14:05:00,
2014-04-17 10:07:00,42.9,27.4,30.64,North,11,2.0,4.0,54,0.00,,,0.00,Wunderground v.1.15,2014-04-17 14:07:00,
2014-04-17 10:09:00,42.8,27.7,30.64,NNE,20,2.0,4.0,55,0.00,,,0.00,Wunderground v.1.15,2014-04-17 14:09:00,
2014-04-17 10:10:00,42.7,27.6,30.64,ENE,61,2.0,2.0,55,0.00,,,0.00,Wunderground v.1.15,2014-04-17 14:10:00,
2014-04-17 10:11:00,42.7,27.6,30.64,North,354,2.0,2.0,55,0.00,,,0.00,Wunderground v.1.15,2014-04-17 14:11:00,
2014-04-17 10:14:00,43.0,28.8,30.64,NW,309,2.0,2.0,57,0.00,,,0.00,Wunderground v.1.15,2014-04-17 14:14:00,
2014-04-17 10:16:00,43.1,28.0,30.64,NW,309,1.0,2.0,55,0.00,,,0.00,Wunderground v.1.15,2014-04-17 14:16:00,
2014-04-17 10:18:00,43.2,28.1,30.64,WSW,248,2.0,3.0,55,0.00,,,0.00,Wunderground v.1.15,2014-04-17 14:18:00,
2014-04-17 10:19:00,43.2,27.7,30.64,SW,235,2.0,3.0,54,0.00,,,0.00,Wunderground v.1.15,2014-04-17 14:19:00,
2014-04-17 10:22:00,43.5,29.3,30.64,NW,319,1.0,2.0,57,0.00,,,0.00,Wunderground v.1.15,2014-04-17 14:22:00,
2014-04-17 10:23:00,43.7,29.0,30.64,WNW,285,1.0,2.0,56,0.00,,,0.00,Wunderground v.1.15,2014-04-17 14:23:00,
2014-04-17 10:24:00,43.9,28.8,30.64,West,276,1.0,2.0,55,0.00,,,0.00,Wunderground v.1.15,2014-04-17 14:24:00,
2014-04-17 10:29:00,43.9,28.3,30.64,NW,309,1.0,3.0,54,0.00,,,0.00,Wunderground v.1.15,2014-04-17 14:29:00,
2014-04-17 10:30:00,44.1,29.4,30.64,ENE,73,1.0,2.0,56,0.00,,,0.00,Wunderground v.1.15,2014-04-17 14:30:00,
2014-04-17 10:32:00,44.3,27.8,30.64,East,101,2.0,3.0,52,0.00,,,0.00,Wunderground v.1.15,2014-04-17 14:32:00,
2014-04-17 10:34:00,44.6,28.0,30.64,North,350,2.0,3.0,52,0.00,,,0.00,Wunderground v.1.15,2014-04-17 14:34:00,
2014-04-17 10:35:00,44.7,28.1,30.64,SE,129,2.0,3.0,52,0.00,,,0.00,Wunderground v.1.15,2014-04-17 14:35:00,
2014-04-17 10:38:00,45.2,29.5,30.64,ESE,113,2.0,3.0,54,0.00,,,0.00,Wunderground v.1.15,2014-04-17 14:38:00,
2014-04-17 10:39:00,45.4,29.7,30.64,NE,51,2.0,3.0,54,0.00,,,0.00,Wunderground v.1.15,2014-04-17 14:39:00,
2014-04-17 10:40:00,45.5,29.3,30.64,ENE,58,2.0,3.0,53,0.00,,,0.00,Wunderground v.1.15,2014-04-17 14:40:00,
2014-04-17 10:43:00,45.8,28.7,30.64,ENE,71,2.0,4.0,51,0.00,,,0.00,Wunderground v.1.15,2014-04-17 14:43:00,
2014-04-17 10:47:00,45.6,28.0,30.64,ENE,61,3.0,4.0,50,0.00,,,0.00,Wunderground v.1.15,2014-04-17 14:47:00,
2014-04-17 10:49:00,45.5,27.9,30.64,SE,136,3.0,4.0,50,0.00,,,0.00,Wunderground v.1.15,2014-04-17 14:49:00,
2014-04-17 10:50:00,45.5,27.9,30.64,South,191,3.0,3.0,50,0.00,,,0.00,Wunderground v.1.15,2014-04-17 14:50:00,
2014-04-17 10:55:00,45.7,27.1,30.64,ENE,74,3.0,6.0,48,0.00,,,0.00,Wunderground v.1.15,2014-04-17 14:55:00,
2014-04-17 10:56:00,45.7,27.1,30.64,NE,56,3.0,6.0,48,0.00,,,0.00,Wunderground v.1.15,2014-04-17 14:56:00,
2014-04-17 10:57:00,45.6,27.5,30.64,NE,55,3.0,6.0,49,0.00,,,0.00,Wunderground v.1.15,2014-04-17 14:57:00,
2014-04-17 10:58:00,45.7,29.1,30.64,SW,226,3.0,6.0,52,0.00,,,0.00,Wunderground v.1.15,2014-04-17 14:58:00,
2014-04-17 11:02:00,46.5,29.3,30.64,SE,138,2.0,3.0,51,0.00,,,0.00,Wunderground v.1.15,2014-04-17 15:02:00,
2014-04-17 11:03:00,46.6,27.9,30.64,ESE,114,2.0,3.0,48,0.00,,,0.00,Wunderground v.1.15,2014-04-17 15:03:00,
2014-04-17 11:04:00,46.7,28.5,30.64,NE,46,2.0,4.0,49,0.00,,,0.00,Wunderground v.1.15,2014-04-17 15:04:00,
2014-04-17 11:05:00,46.5,27.3,30.64,NE,44,2.0,4.0,47,0.00,,,0.00,Wunderground v.1.15,2014-04-17 15:05:00,
2014-04-17 11:07:00,46.2,28.6,30.63,NE,46,2.0,4.0,50,0.00,,,0.00,Wunderground v.1.15,2014-04-17 15:07:00,
2014-04-17 11:08:00,46.1,29.0,30.63,NE,40,3.0,4.0,51,0.00,,,0.00,Wunderground v.1.15,2014-04-17 15:08:00,
2014-04-17 11:09:00,46.1,29.4,30.63,ENE,72,3.0,5.0,52,0.00,,,0.00,Wunderground v.1.15,2014-04-17 15:09:00,
2014-04-17 11:11:00,46.2,29.1,30.63,ENE,75,3.0,4.0,51,0.00,,,0.00,Wunderground v.1.15,2014-04-17 15:11:00,
2014-04-17 11:12:00,46.2,28.6,30.63,West,262,3.0,4.0,50,0.00,,,0.00,Wunderground v.1.15,2014-04-17 15:12:00,
2014-04-17 11:15:00,46.4,27.8,30.63,WNW,290,3.0,4.0,48,0.00,,,0.00,Wunderground v.1.15,2014-04-17 15:15:00,
2014-04-17 11:17:00,46.6,28.9,30.63,South,189,3.0,6.0,50,0.00,,,0.00,Wunderground v.1.15,2014-04-17 15:17:00,
2014-04-17 11:18:00,46.7,28.5,30.63,SSW,205,3.0,6.0,49,0.00,,,0.00,Wunderground v.1.15,2014-04-17 15:18:00,
2014-04-17 11:21:00,47.1,29.4,30.63,SE,129,3.0,4.0,50,0.00,,,0.00,Wunderground v.1.15,2014-04-17 15:21:00,
2014-04-17 11:23:00,47.2,28.5,30.63,SE,132,3.0,6.0,48,0.00,,,0.00,Wunderground v.1.15,2014-04-17 15:23:00,
2014-04-17 11:24:00,47.3,28.6,30.63,SW,217,3.0,6.0,48,0.00,,,0.00,Wunderground v.1.15,2014-04-17 15:24:00,